Location: Agendoh
(31.0664°N, 8.9343°W)
Time: 11:11:22
(UTC+00:00)

Cosmos 1151 Rocket - Pass Details

Date: 08 July 2022
Orbit: 592 x 614 km, 82.5° (Epoch: 07 August)

Event Time Altitude Azimuth Distance (km) Brightness Sun altitude
Rises 01:21:14 0° 11° (N) 2,885 7.5 -35.6°
Reaches altitude 10° 01:23:55 10° 27° (NNE) 1,976 6.4 -35.5°
Enters shadow 01:25:15 16° 42° (NE) 1,617 5.7 -35.4°
